United States

Ashburn, VA Weather Archive

Below you will find the last 24 hours of weather readings for Ashburn VA

Ashburn VA Today's Weather Data

Observed at: Ashburn, VA

Hour Observerd Temp Pressure Visibility Humidity Dew Point Wind
06:00 Fair 70°F (21.1°C) 101.39 kPa 10 miles 93% 67.9°F (19.9°C) 4.6 mph ESE 114°
05:00 Fair 71°F (21.7°C) 101.35 kPa 10 miles 92% 68.6°F (20.3°C) 4.6 mph ESE 114°
04:00 Fair 72°F (22.2°C) 101.35 kPa 10 miles 93% 69.9°F (21°C) 3.5 mph ESE 113°
03:00 Fair 72°F (22.2°C) 101.35 kPa 10 miles 93% 69.9°F (21°C) 3.5 mph ESE 113°
02:00 Partly Cloudy 73°F (22.8°C) 101.42 kPa 10 miles 92% 70.5°F (21.4°C) 1 mph ESE 113°
01:00 Mostly Cloudy 73°F (22.8°C) 101.35 kPa 10 miles 92% 70.5°F (21.4°C) 4.6 mph ESE 113°
00:00 Mostly Cloudy 75°F (23.9°C) 101.35 kPa 10 miles 90% 71.9°F (22.1°C) 4.6 mph ESE 103°
23:00 Mostly Cloudy 76°F (24.4°C) 101.29 kPa 10 miles 89% 72.5°F (22.5°C) 3.5 mph ESE 104°
22:00 Mostly Cloudy 77°F (25°C) 101.35 kPa 10 miles 86% 72.5°F (22.5°C) 3.5 mph SE 130°
21:00 Mostly Cloudy 78°F (25.6°C) 101.25 kPa 10 miles 86% 73.5°F (23°C) 2 mph E 101°4 mph
20:00 Mostly Cloudy 79°F (26.1°C) 101.25 kPa 10 miles 82% 73°F (22.8°C) 4.6 mph SE 127°
19:00 Mostly Cloudy 77°F (25°C) 101.25 kPa 10 miles 86% 72.5°F (22.5°C) 1 mph E 100°4 mph
18:00 Partly Cloudy 92°F (33.3°C) 101.19 kPa 10 miles 56% 74°F (23.3°C) 4 mph E 79°12 mph
17:00 Thunderstorm 91°F (32.8°C) 101.25 kPa 7 miles 56% 73.1°F (22.8°C) 15 mph NW 308°
16:00 Partly Cloudy 94°F (34.4°C) 101.25 kPa 10 miles 54% 74.8°F (23.8°C) 6.9 mph ESE 107°
15:00 Partly Cloudy 92°F (33.3°C) 101.32 kPa 10 miles 54% 72.9°F (22.7°C) 5.8 mph WNW 288°6 mph
14:00 Fair 90°F (32.2°C) 101.35 kPa 10 miles 59% 73.7°F (23.2°C) 1 mph WNW 295°
13:00 Fair 90°F (32.2°C) 101.42 kPa 10 miles 59% 73.7°F (23.2°C) 6.9 mph ESE 118°
12:00 Partly Cloudy 85°F (29.4°C) 101.49 kPa 10 miles 71% 74.5°F (23.6°C) 4.6 mph WNW 294°
11:00 Fair 80°F (26.7°C) 101.52 kPa 10 miles 80% 73.3°F (22.9°C) 5.8 mph ESE 113°
10:00 Partly Cloudy 74°F (23.3°C) 101.56 kPa 10 miles 88% 70.2°F (21.2°C) 4.6 mph WNW 295°
09:00 Partly Cloudy 72°F (22.2°C) 101.59 kPa 10 miles 90% 68.9°F (20.5°C) 4.6 mph ESE 115°
08:00 Partly Cloudy 69°F (20.6°C) 101.59 kPa 10 miles 94% 67.2°F (19.6°C) 4.6 mph ESE 120°
07:00 Fair 68°F (20°C) 101.59 kPa 10 miles 94% 66.2°F (19°C) 4.6 mph ESE 120°